User: anonymous
Location: Unspecified
(0.0000°N, 0.0000°E)
Time: 13:35:18
(UTC+02:00)
Language:

Cosmos 1515 Rocket - Orbit

View from above orbital plane
View from above orbital plane
View from above satellite
View from above satellite

Ground track
Ground track

The orbit data is extracted from the following two-line orbital elements,

1 14552U 83122B   14244.76573028  .00000255  00000-0  28560-4 0  9454
2 14552 082.5254 310.7136 0015863 278.9616 217.0962 14.82877482658072
Epoch (UTC): 01 September 2014 18:22:39
Eccentricity: 0.0015863
inclination: 82.5254°
perigee height: 609 km
apogee height: 631 km
right ascension of ascending node: 310.7136°
argument of perigee: 278.9616°
revolutions per day: 14.82877482
mean anomaly at epoch: 217.0962°
orbit number at epoch: 65807

The dashed part of the orbit path shows where the satellite is in the earth's shadow,  

DLR